Weather History for KCDW - October, 2011

Change the Weather History Date:

Tuesday, October 18, 2011

  Actual Average Record
Temperature  
Mean Temperature 57 °F -  
Max Temperature 68 °F 62 °F 80 °F (1963)
Min Temperature 46 °F 39 °F 26 °F (1978)
Degree Days  
Heating Degree Days 8    
Growing Degree Days 7 (Base 50)    
Moisture  
Dew Point 42 °F    
Average Humidity 64    
Maximum Humidity 90    
Minimum Humidity 27    
Precipitation  
Precipitation 0.00 in - - ()
Sea Level Pressure  
Sea Level Pressure 29.87 in    
Wind  
Wind Speed 1 mph (SSW)    
Max Wind Speed 6 mph    
Max Gust Speed -    
Visibility 10 miles    
Events      
Averages and records for this station are not official NWS values.
T = Trace of Precipitation, MM = Missing Value Source: NWS Daily Summary

Daily Weather History Graph

Daily Weather History Graph

Search for Another Location

Airport or City:

Trip Planner

Search our weather history database for the weather conditions in past years. The results will help you decide how hot, cold, wet, or windy it might be!

Date:

Astronomy

Oct. 18, 2011 Rise Set
Actual Time 7:11 AM EDT 6:12 PM EDT
Civil Twilight 6:43 AM EDT 6:40 PM EDT
Nautical Twilight 6:11 AM EDT 7:12 PM EDT
Astronomical Twilight 5:39 AM EDT 7:43 PM EDT
Moon 10:49 PM EDT (10/18) 1:02 PM EDT (10/18)
Length of Visible Light 11h 56m
Length of Day
11h 01m
Waning Gibbous, 65% of the Moon is Illuminated
Oct 18
Waning Gibbous
Oct 19
Last Quarter
Oct 26
New
Nov 2
First Quarter
Nov 10
Full

Hourly Weather History & Observations

Time (EDT) Temp. Dew Point Humidity Pressure Visibility Wind Dir Wind Speed Gust Speed Precip Events Conditions
12:53 AM 52.0 °F 41.0 °F 66% 29.82 in 10.0 mi Calm Calm - N/A   Partly Cloudy
1:53 AM 48.0 °F 42.1 °F 80% 29.82 in 10.0 mi Calm Calm - N/A   Partly Cloudy
2:53 AM 46.9 °F 43.0 °F 86% 29.82 in 10.0 mi Calm Calm - N/A   Partly Cloudy
3:53 AM 46.9 °F 43.0 °F 86% 29.82 in 10.0 mi Calm Calm - N/A   Clear
4:53 AM 46.9 °F 44.1 °F 90% 29.83 in 10.0 mi Calm Calm - N/A   Clear
5:53 AM 46.9 °F 42.1 °F 83% 29.86 in 10.0 mi Calm Calm - N/A   Clear
6:53 AM 48.0 °F 43.0 °F 83% 29.87 in 10.0 mi Calm Calm - N/A   Scattered Clouds
8:53 AM 52.0 °F 44.1 °F 74% 29.89 in 10.0 mi Calm Calm - 0.00 in   Partly Cloudy
9:53 AM 53.1 °F 44.1 °F 71% 29.91 in 10.0 mi Calm Calm - N/A   Clear
10:53 AM 57.9 °F 39.9 °F 51% 29.91 in 10.0 mi SSW 4.6 mph - N/A   Clear
11:53 AM 64.0 °F 36.0 °F 35% 29.91 in 10.0 mi Calm Calm - N/A   Clear
12:53 PM 64.9 °F 36.0 °F 34% 29.88 in 10.0 mi Variable 3.5 mph - N/A   Clear
1:53 PM 66.9 °F 35.1 °F 31% 29.87 in 10.0 mi Variable 5.8 mph - N/A   Clear
2:53 PM 68.0 °F 33.1 °F 27% 29.86 in 10.0 mi Variable 3.5 mph - N/A   Clear
3:53 PM 68.0 °F 35.1 °F 30% 29.87 in 10.0 mi SSW 3.5 mph - N/A   Scattered Clouds
4:53 PM 66.9 °F 39.0 °F 36% 29.86 in 10.0 mi South 3.5 mph - N/A   Clear
5:53 PM 63.0 °F 44.1 °F 50% 29.87 in 10.0 mi Calm Calm - N/A   Clear
6:53 PM 57.9 °F 46.9 °F 67% 29.88 in 10.0 mi Calm Calm - N/A   Clear
8:53 PM 54.0 °F 48.0 °F 80% 29.91 in 10.0 mi Calm Calm - N/A   Partly Cloudy
9:53 PM 53.1 °F 48.0 °F 83% 29.92 in 10.0 mi Calm Calm - N/A   Mostly Cloudy
10:53 PM 53.1 °F 48.0 °F 83% 29.91 in 10.0 mi Calm Calm - N/A   Clear
11:53 PM 52.0 °F 48.0 °F 86% 29.91 in 10.0 mi Calm Calm - N/A   Clear